CAPE
1 1 0 0 0 3 0 0 0 0 0 0 0 0 0 0 0 0 0 0 0 0 0 0 0 0 0 0 0 0 0 0 0 0 0 0 0 0 0 0 0 0 0 0
0 1 0 0 0 0 0 0 7 0 0 0 0 0 0 0 0 0 0 0 0 0 0 0 0 0 0 0 0 0 0 0 0 0 0 0 0 0 0 0 0 0 0 0
0 0 0 0 0 2 8 1 10 0 0 0 0 0 0 0 0 0 0 0 0 0 0 0 0 0 0 0 0 0 0 0 0 0 0 0 0 0 0 0 0 0 0 0
0 15 1 9 12 5 1 0 1 0 0 0 0 0 0 0 0 0 0 0 0 0 0 0 0 0 0 5 0 0 0 0 0 0 0 0 0 0 0 0 0 0 0 0
0 0 8 3 0 0 0 0 0 0 0 0 0 0 0 0 0 0 0 0 0 0 0 0 0 0 0 0 7 3 0 0 0 0 0 0 0 0 0 0 0 0 0 0
0 0 24 6 0 0 0 0 0 0 0 0 0 0 0 0 0 0 0 0 0 0 0 0 0 0 0 0 6 16 18 12 2 0 0 0 0 0 0 0 0 0 0 0
0 7 0 0 0 0 0 0 0 0 0 0 0 0 0 0 0 0 0 0 0 0 0 0 0 0 0 0 0 1 10 21 29 23 2 0 0 0 0 0 0 6 16 13
1 2 0 0 0 0 0 0 0 0 0 0 0 0 0 0 0 0 0 0 0 0 0 0 0 0 0 0 0 0 0 0 7 23 51 56 42 42 48 44 47 38 61 31
0 0 0 0 0 0 0 0 0 0 0 0 0 0 0 0 0 0 0 0 0 0 0 0 0 0 0 0 0 0 0 0 0 0 23 38 70 78 89 99 93 106 95 60
0 0 0 0 0 0 0 0 0 0 0 0 0 0 0 0 0 0 0 0 0 0 0 0 0 0 0 0 0 0 0 0 0 0 0 0 38 74 97 103 125 153 135 68
0 0 0 0 0 0 0 0 0 0 0 0 0 0 0 0 0 0 0 0 0 0 0 0 0 0 0 0 0 0 0 0 0 0 0 0 0 17 48 92 120 145 108 35
0 0 0 0 0 0 0 0 0 0 0 0 0 0 0 0 0 0 0 0 0 0 0 0 0 0 0 0 0 0 0 0 0 0 0 0 0 0 10 27 41 23 5 0
0 0 0 0 0 0 0 0 0 0 0 0 0 0 0 0 0 0 0 0 0 0 0 0 0 0 0 0 0 0 0 0 0 0 0 0 0 0 0 0 0 0 0 0
0 0 0 0 0 0 0 0 0 0 0 0 0 0 0 0 0 0 0 0 0 0 0 0 0 0 0 0 0 0 0 0 0 0 0 0 0 0 0 0 0 0 0 0
0 0 0 0 0 0 0 0 0 0 0 0 0 0 0 0 0 0 0 0 0 0 0 0 0 0 0 0 0 0 0 0 0 0 0 0 0 0 0 0 0 0 0 0
0 0 0 0 0 0 0 0 0 0 0 0 0 0 0 0 0 0 0 0 0 0 0 0 0 0 0 0 0 0 0 0 0 0 0 0 0 0 0 0 0 0 0 0
0 0 0 0 0 0 0 0 0 0 0 0 0 0 0 0 0 0 0 0 0 0 0 0 0 0 0 0 0 0 0 0 0 0 0 0 0 0 0 0 0 0 0 0
0 0 0 0 0 0 0 0 0 0 0 0 0 0 0 0 0 0 0 0 0 0 0 0 0 0 0 0 0 0 0 0 0 0 0 0 0 0 0 0 0 0 0 0
0 0 0 0 0 0 0 0 0 0 0 0 0 0 0 0 0 0 0 0 0 0 0 0 0 0 0 0 0 0 0 0 0 0 0 0 0 0 0 0 0 0 0 0
0 0 0 0 0 0 0 0 0 0 0 0 0 0 0 0 0 0 0 0 0 0 0 0 0 0 0 0 0 0 0 0 0 0 0 0 0 0 0 0 0 0 0 0
0 0 0 0 0 0 0 0 0 0 0 0 0 0 0 0 0 0 0 0 0 0 0 0 0 0 0 0 0 0 0 0 0 0 0 0 0 0 0 0 0 0 0 1
0 0 0 0 0 0 0 0 0 0 0 0 0 0 0 0 0 0 0 0 0 0 0 0 0 0 0 0 0 0 0 0 0 0 0 0 0 0 0 0 0 0 0 1
0 0 0 0 0 0 0 0 0 0 0 0 0 0 0 0 0 0 0 0 0 0 0 0 0 0 0 0 0 0 0 0 0 0 0 0 0 0 0 0 0 0 0 1
0 0 0 0 0 0 0 0 0 0 0 0 0 0 0 0 0 0 0 0 0 0 0 0 0 0 0 0 0 0 0 0 0 0 0 0 0 0 0 0 0 0 0 1
0 0 0 0 0 0 0 0 0 0 0 0 0 0 0 0 0 0 0 0 0 0 0 0 0 0 0 0 0 0 0 0 0 0 0 0 0 0 0 0 0 0 0 0
0 0 0 0 0 0 0 0 0 0 0 0 0 0 0 0 0 0 0 0 0 0 0 0 0 0 0 0 0 0 0 0 0 0 0 0 0 0 0 0 0 0 0 0
CIN
-0 0 0 -3 0 -22 0 0 0 0 0 0 0 0 0 0 0 0 0 0 0 0 0 0 0 0 0 0 0 0 0 0 0 0 0 0 0 0 0 0 0 0 0 0
-1 0 0 0 0 0 -17 -1 -8 0 0 0 0 0 0 0 0 0 0 0 0 0 0 0 0 0 0 0 0 0 0 0 0 0 0 0 0 0 0 0 0 0 0 0
-0 -1 -1 -2 0 -9 -2 -1 -20 -0 0 0 0 0 0 0 0 0 0 0 0 0 0 0 0 0 0 0 0 0 0 0 0 0 0 0 0 0 0 0 0 0 0 0
-1 -8 -1 -4 -6 -0 -2 0 -6 0 0 0 0 0 0 0 0 0 0 0 0 0 0 0 0 0 0 -304 0 0 0 0 0 0 0 0 0 0 0 0 0 0 0 0
-16 0 -0 -4 -1 -0 0 0 0 0 0 0 0 0 0 0 0 0 0 0 0 0 0 0 0 0 0 -11 -318 -302 0 0 0 0 0 0 0 0 0 0 0 0 0 0
0 0 -24 -5 0 0 0 0 0 0 0 0 0 0 0 0 0 0 0 0 0 0 0 0 0 0 0 0 -323 -294 -263 -273 -100 0 0 0 0 0 0 0 0 0 0 0
0 -14 0 0 0 0 0 0 0 0 0 0 0 0 0 0 0 0 0 0 0 0 0 0 0 0 0 0 0 -138 -274 -250 -222 -215 -124 0 0 0 0 0 0 -123 -195 -233
-4 -8 0 0 0 0 0 0 0 0 0 0 0 0 0 0 0 0 0 0 0 0 0 0 0 0 0 0 0 0 0 -21 -254 -214 -189 -224 -233 -212 -206 -194 -162 -119 -156 -193
0 0 0 0 0 0 0 -4 0 0 0 0 0 0 0 0 0 0 0 0 0 0 0 0 0 0 0 0 0 0 0 0 0 -16 -200 -155 -169 -190 -186 -187 -158 -101 -129 -176
0 0 0 0 0 0 0 0 0 0 0 0 0 0 0 0 0 0 0 0 0 0 0 0 0 0 0 0 0 0 0 0 0 0 0 0 -194 -168 -174 -159 -157 -129 -122 -183
0 0 0 0 0 0 0 0 0 0 0 0 0 0 0 0 0 0 0 0 0 0 0 0 0 0 0 0 0 0 0 0 0 0 0 0 0 -202 -167 -143 -160 -130 -138 -250
0 0 0 0 0 0 0 0 0 0 0 0 0 0 0 0 0 0 0 0 0 0 0 0 0 0 0 0 0 0 0 0 0 0 0 0 0 0 -210 -197 -199 -189 -256 -18
0 0 0 0 0 0 0 0 0 0 0 0 0 0 0 0 0 0 0 0 0 0 0 0 0 0 0 0 0 0 0 0 0 0 0 0 0 0 0 0 0 0 0 0
0 0 0 0 0 0 0 0 0 0 0 0 0 0 0 0 0 0 0 0 0 0 0 0 0 0 0 0 0 0 0 0 0 0 0 0 0 0 0 0 0 0 0 0
0 0 0 0 0 0 0 0 0 0 0 0 0 0 0 0 0 0 0 0 0 0 0 0 0 0 0 0 0 0 0 0 0 0 0 0 0 0 0 0 0 0 0 0
0 0 0 0 0 0 0 0 0 0 0 0 0 0 0 0 0 0 0 0 0 0 0 0 0 0 0 0 0 0 0 0 0 0 0 0 0 0 0 0 0 0 0 0
0 0 0 0 0 0 0 0 0 0 0 0 0 0 0 0 0 0 0 0 0 0 0 0 0 0 0 0 0 0 0 0 0 0 0 0 0 0 0 0 0 0 0 0
0 0 0 0 0 0 0 0 0 0 0 0 0 0 0 0 0 0 0 0 0 0 0 0 0 0 0 0 0 0 0 0 0 0 0 0 0 0 0 0 0 0 0 0
0 0 0 0 0 0 0 0 0 0 0 0 0 0 0 0 0 0 0 0 0 0 0 0 0 0 0 0 0 0 0 0 0 0 0 0 0 0 0 0 0 0 0 0
0 0 0 0 0 0 0 0 0 0 0 0 0 0 0 0 0 0 0 0 0 0 0 0 0 0 0 0 0 0 0 0 0 0 0 0 0 0 0 0 0 0 0 0
0 0 0 0 0 0 0 0 0 0 0 0 0 0 0 0 0 0 0 0 0 0 0 0 0 0 0 0 0 0 0 0 0 0 0 0 0 0 0 0 0 0 0 0
0 0 0 0 0 0 0 0 0 0 0 0 0 0 0 0 0 0 0 0 0 0 0 0 0 0 0 0 0 0 0 0 0 0 0 0 0 0 0 0 0 0 0 0
0 0 0 0 0 0 0 0 0 0 0 0 0 0 0 0 0 0 0 0 0 0 0 0 0 0 0 0 0 0 0 0 0 0 0 0 0 0 0 0 0 0 0 0
0 0 0 0 0 0 0 0 0 0 0 0 0 0 0 0 0 0 0 0 0 0 0 0 0 0 0 0 0 0 0 0 0 0 0 0 0 0 0 0 0 0 0 0
0 0 0 0 0 0 0 0 0 0 0 0 0 0 0 0 0 0 0 0 0 0 0 0 0 0 0 0 0 0 0 0 0 0 0 0 0 0 0 0 0 0 0 0
0 0 0 0 0 0 0 0 0 0 0 0 0 0 0 0 0 0 0 0 0 0 0 0 0 0 0 0 0 0 0 0 0 0 0 0 0 0 0 0 0 0 0 0
Wind_Speed
34 39 46 41 36 30 30 30 29 28 20 20 24 23 34 25 18 22 25 28 16 11 9 8 9 9 11 11 11 11 11 10 8 8 8 9 10 11 11 10 9 6 6 6
38 52 41 35 37 35 30 32 30 21 21 24 28 38 37 22 20 25 24 25 29 17 11 9 9 11 11 12 13 12 11 11 11 9 10 13 13 14 14 12 11 11 10 8
48 41 35 36 37 39 34 30 29 28 24 28 32 40 39 31 11 14 29 21 19 21 15 12 11 12 12 13 13 14 13 13 13 12 12 13 15 16 16 16 16 13 12 10
41 34 37 37 41 28 35 27 24 26 27 33 24 36 30 28 11 14 13 18 18 19 18 16 14 13 14 15 14 15 15 15 14 14 14 14 15 15 17 18 18 16 14 14
43 43 37 41 41 32 34 21 22 24 29 32 30 33 29 28 21 14 10 12 12 14 14 15 15 16 15 15 15 16 16 17 16 17 17 17 17 18 18 19 18 17 17 16
37 30 34 35 29 21 18 17 18 23 29 39 35 31 34 28 26 23 16 10 11 12 14 15 14 14 15 15 16 17 18 19 18 18 19 20 20 20 20 20 20 19 19 18
32 35 29 27 31 25 29 26 34 37 38 40 30 33 42 27 26 25 24 23 20 10 12 13 16 15 14 15 16 17 18 20 21 21 21 21 21 22 22 21 20 20 19 19
46 46 37 33 36 35 35 31 33 39 40 37 31 36 34 30 28 28 27 23 22 23 12 10 12 15 15 14 14 15 16 18 19 21 23 23 23 23 23 22 22 22 21 21
44 40 30 32 29 29 37 39 26 28 29 35 34 36 36 34 31 28 26 23 22 23 21 17 15 14 14 14 15 15 16 18 19 20 22 25 25 25 25 24 23 24 22 22
32 38 32 32 25 29 34 28 36 33 40 42 37 36 34 27 24 23 21 21 20 18 18 16 16 16 15 15 16 18 17 17 18 19 21 23 27 28 27 27 25 24 25 24
25 31 34 29 38 39 33 37 32 31 33 37 39 36 27 25 24 21 17 17 15 17 16 16 16 16 16 18 19 19 19 19 19 20 20 21 22 27 31 30 28 27 27 25
29 28 37 37 27 30 33 34 33 38 40 38 35 40 19 17 15 16 14 14 14 13 12 13 14 16 16 16 18 19 20 20 21 24 24 24 24 25 28 31 31 30 30 27
29 30 34 34 33 30 38 33 32 28 28 38 42 42 23 20 20 17 13 16 12 12 14 17 20 22 21 20 19 19 20 22 23 24 25 25 27 28 28 31 32 31 30 29
29 29 35 43 36 27 34 32 31 31 37 35 41 35 26 22 21 17 16 15 14 17 20 23 24 23 22 22 22 22 22 21 21 20 22 23 24 25 27 29 30 29 29 29
36 35 31 26 26 27 30 30 30 34 34 35 35 35 30 24 20 15 17 21 23 26 26 27 28 26 26 26 25 24 23 23 22 22 22 22 24 26 27 29 28 28 28 28
35 33 28 30 25 26 29 29 30 30 30 34 36 40 27 25 30 29 24 23 26 26 27 30 26 29 29 28 27 26 25 24 22 23 23 22 23 24 25 26 28 29 30 31
32 28 29 32 23 22 31 28 29 32 32 29 35 31 24 28 31 29 29 30 30 31 30 29 28 28 26 26 27 27 25 22 22 23 23 23 23 24 26 26 27 27 28 27
35 30 27 27 22 36 31 24 28 29 33 32 39 39 34 33 33 31 27 30 32 30 30 28 24 23 24 25 25 25 25 24 24 23 22 22 22 24 25 25 25 26 25 24
29 29 29 30 33 34 39 29 26 27 34 32 30 40 41 37 38 44 33 30 32 32 27 25 26 27 26 24 23 22 23 23 25 27 27 25 25 25 23 23 25 25 25 24
30 32 29 30 34 37 33 19 19 21 45 27 29 34 36 32 35 39 27 26 27 26 26 25 24 22 21 24 23 23 24 24 26 27 29 29 27 26 26 24 23 23 24 24
32 34 38 32 33 35 25 13 12 22 27 20 21 27 30 31 30 28 24 25 23 23 22 20 19 19 21 22 22 22 23 25 27 28 28 29 30 29 28 26 25 24 24 25
32 31 38 35 37 44 14 16 21 23 16 13 13 14 16 18 19 20 20 20 21 20 18 16 15 16 18 20 19 20 23 25 25 25 26 27 28 29 28 26 26 25 24 25
32 33 30 29 30 20 19 23 21 20 21 20 19 17 14 12 14 14 16 17 16 15 14 12 11 13 17 19 20 21 23 24 25 25 26 27 27 27 27 26 26 27 26 27
29 25 27 28 31 26 18 20 19 18 19 19 19 17 16 16 15 17 17 15 14 14 11 10 11 14 17 20 21 22 24 24 24 25 27 26 27 27 27 27 26 26 26 27
26 25 30 31 26 23 25 22 19 20 20 19 20 21 19 16 17 16 15 12 11 11 12 12 14 17 19 20 22 24 25 25 25 26 26 28 28 28 27 26 26 26 25 24
23 25 29 33 27 25 25 23 22 23 22 19 18 18 17 15 14 13 13 11 10 11 12 13 15 16 18 20 22 25 26 27 27 27 28 28 29 29 29 29 30 26 26 26
Wind_Direction
229 231 231 231 234 246 244 248 257 255 261 262 265 274 259 273 280 272 267 265 264 254 254 216 212 211 194 193 191 190 189 197 201 214 219 255 260 271 275 279 283 283 293 299
228 231 234 235 237 241 248 246 250 260 257 263 267 258 259 278 279 269 266 266 266 269 253 227 222 209 210 207 205 209 208 208 209 228 247 267 269 274 277 279 277 282 284 283
228 236 233 235 236 239 244 243 245 256 261 267 271 265 261 272 255 259 265 263 266 268 263 255 235 222 220 211 217 223 225 225 227 235 253 267 274 277 277 277 278 275 275 277
233 234 228 232 236 236 241 249 251 253 261 264 273 270 275 275 248 214 249 258 253 255 263 253 241 233 225 226 230 226 229 233 238 241 248 247 255 260 272 276 279 277 272 274
229 228 227 229 237 239 247 249 251 258 262 265 267 272 278 274 279 273 251 253 245 233 235 248 241 236 238 242 232 238 240 241 241 239 246 252 260 269 273 278 278 276 277 274
232 234 233 237 232 236 225 243 257 264 264 262 261 267 268 272 276 283 287 269 242 235 239 236 234 221 223 243 241 245 246 246 246 244 246 255 260 269 272 272 275 276 277 275
226 227 235 226 227 234 245 239 250 255 257 259 265 264 259 271 277 289 291 291 293 262 259 245 238 228 225 220 223 240 243 250 252 253 253 253 260 265 268 270 272 273 275 276
221 227 226 227 228 232 229 245 248 253 255 262 263 264 270 276 283 282 287 289 293 298 281 257 248 239 232 229 230 229 235 241 249 252 256 260 260 267 268 271 274 275 275 275
223 233 227 225 235 226 235 240 257 258 264 262 263 269 273 275 276 283 286 289 289 291 299 300 292 268 259 255 247 240 242 245 249 248 256 263 265 265 268 270 272 274 275 279
228 229 235 229 234 245 241 243 248 254 256 260 265 268 269 276 281 290 293 292 290 297 302 306 306 295 275 274 269 269 265 255 254 257 256 260 266 269 269 272 271 272 276 277
212 229 234 232 240 235 238 240 249 251 257 260 264 270 276 276 286 292 298 304 302 303 309 308 311 312 303 290 288 284 277 268 268 264 262 261 260 270 274 274 276 276 279 277
225 235 231 234 252 244 244 244 246 251 256 260 267 267 286 291 300 308 308 307 308 318 328 329 330 327 319 311 301 292 291 288 284 283 279 276 277 276 276 276 278 280 281 280
214 232 229 238 250 245 242 242 242 257 263 258 258 266 271 283 294 299 299 311 303 308 312 315 316 316 314 313 313 311 306 298 294 291 288 285 282 283 280 281 281 281 281 281
225 231 236 236 242 238 239 238 240 248 256 260 258 267 276 280 287 295 292 302 300 297 302 306 310 311 312 310 310 310 310 310 308 302 295 290 287 283 284 286 285 283 282 280
228 234 236 242 244 240 236 234 238 242 250 254 262 264 267 276 276 282 291 292 296 297 300 301 304 304 306 306 307 306 306 307 308 307 305 300 297 295 293 291 291 290 288 287
227 234 234 246 244 244 243 239 235 239 244 256 264 268 274 273 273 280 289 293 293 297 301 301 301 303 303 304 304 304 304 304 304 303 303 305 304 302 299 298 296 294 293 291
220 224 228 241 242 244 249 228 232 246 250 245 259 254 278 271 275 280 283 286 290 295 298 300 299 301 304 306 307 305 306 307 305 304 302 303 303 302 301 302 302 301 301 301
218 222 232 236 234 247 259 244 245 248 255 251 260 264 269 274 278 279 281 284 289 293 296 301 305 305 305 308 311 313 315 313 310 308 305 304 303 302 302 303 303 305 305 304
225 223 233 238 241 262 257 254 240 250 261 258 250 266 268 272 277 275 279 283 286 292 299 299 303 307 309 311 313 313 314 315 314 312 310 308 305 303 304 303 303 304 305 306
230 234 239 239 245 249 268 255 247 258 271 261 259 267 269 271 271 277 283 285 287 291 295 298 303 307 311 313 317 317 316 314 312 311 310 310 308 305 303 303 303 305 305 304
222 228 235 242 248 261 267 241 228 249 281 286 263 267 269 266 272 286 290 293 297 297 299 305 308 312 316 320 321 320 319 318 317 315 312 310 309 308 307 306 306 305 304 304
229 227 236 241 249 259 241 230 229 262 283 305 312 291 281 280 282 286 292 295 296 297 307 313 317 322 328 331 332 331 328 327 326 322 319 316 314 312 312 311 310 310 308 306
239 237 236 238 249 285 250 255 260 271 273 282 289 294 290 285 288 289 294 299 306 307 315 325 330 335 339 341 340 338 336 334 332 331 325 320 321 320 318 314 312 310 310 307
245 238 250 253 253 254 269 270 262 269 276 278 284 285 283 285 285 285 288 292 298 307 324 335 340 336 338 341 343 342 339 339 335 332 331 330 326 325 322 320 318 316 313 310
247 237 247 253 262 258 262 261 268 273 278 276 281 284 285 279 278 279 282 285 296 305 318 324 325 325 331 337 339 338 336 336 334 333 332 329 328 326 325 325 323 321 320 318
247 245 244 253 251 260 268 261 266 268 267 268 273 277 284 282 277 275 275 284 297 310 319 321 324 327 332 335 336 335 335 333 332 331 330 329 328 327 326 324 323 324 322 320